Wahoo, NE

9:03 AM CST on February 06, 2016 (GMT -0600)
Wahoo Municipal

Weather History for KAHQ - March, 2013

Change the Weather History Date:

Wednesday, March 13, 2013

  Actual Average Record
Temperature  
Mean Temperature 24 °F -  
Max Temperature 36 °F 47 °F 82 °F (2012)
Min Temperature 12 °F 26 °F 3 °F (1975)
Degree Days  
Heating Degree Days 41    
Moisture  
Dew Point 20 °F    
Average Humidity 78    
Maximum Humidity 93    
Minimum Humidity 66    
Precipitation  
Precipitation 0.00 in - - ()
Sea Level Pressure  
Sea Level Pressure 30.35 in    
Wind  
Wind Speed 6 mph (SE)    
Max Wind Speed 10 mph    
Max Gust Speed -    
Visibility 10 miles    
Events      
Averages and records for this station are not official NWS values.
T = Trace of Precipitation, MM = Missing Value Source: NWS Daily Summary

Daily Weather History Graph

Daily Weather History Graph

Search for Another Location

Airport or City:

Trip Planner

Search our weather history database for the weather conditions in past years. The results will help you decide how hot, cold, wet, or windy it might be!

Date:

Astronomy

Mar. 13, 2013 Rise Set
Actual Time 7:40 AM CDT 7:31 PM CDT
Civil Twilight 7:13 AM CDT 7:58 PM CDT
Nautical Twilight 6:41 AM CDT 8:30 PM CDT
Astronomical Twilight 6:09 AM CDT 9:03 PM CDT
Moon 8:19 AM CDT (3/13) 9:50 PM CDT (3/13)
Length of Visible Light 12h 45m
Length of Day
11h 50m
Waxing Crescent, 4% of the Moon is Illuminated
Mar 13
Waxing Crescent
Mar 19
First Quarter
Mar 27
Full
Apr 2
Last Quarter
Apr 10
New

Hourly Weather History & Observations

Time (CDT) Temp. Windchill Dew Point Humidity Pressure Visibility Wind Dir Wind Speed Gust Speed Precip Events Conditions
12:55 AM 21.7 °F 14.3 °F 17.4 °F 83% 30.34 in 10.0 mi NW 5.8 mph - N/A   Clear
1:15 AM 20.3 °F 10.6 °F 15.8 °F 83% 30.35 in 10.0 mi WNW 8.1 mph - N/A   Clear
1:35 AM 20.3 °F 12.5 °F 16.2 °F 84% 30.35 in 10.0 mi WNW 5.8 mph - N/A   Clear
1:55 AM 19.8 °F 10.8 °F 16.2 °F 86% 30.35 in 10.0 mi WNW 6.9 mph - N/A   Clear
2:15 AM 20.3 °F 10.6 °F 16.5 °F 85% 30.35 in 10.0 mi WNW 8.1 mph - N/A   Clear
2:35 AM 21.6 °F 14.0 °F 16.7 °F 82% 30.36 in 10.0 mi NW 5.8 mph - N/A   Clear
2:55 AM 19.4 °F 10.4 °F 15.3 °F 84% 30.36 in 10.0 mi NW 6.9 mph - N/A   Clear
3:15 AM 19.2 °F 9.3 °F 15.4 °F 85% 30.35 in 10.0 mi NNW 8.1 mph - N/A   Clear
3:55 AM 18.5 °F 10.4 °F 15.6 °F 89% 30.36 in 10.0 mi NW 5.8 mph - N/A   Clear
4:15 AM 18.7 °F 9.5 °F 15.4 °F 87% 30.36 in 10.0 mi WNW 6.9 mph - N/A   Clear
4:35 AM 18.5 °F 11.7 °F 15.1 °F 86% 30.36 in 10.0 mi WNW 4.6 mph - N/A   Clear
4:55 AM 18.5 °F 11.7 °F 15.4 °F 88% 30.37 in 10.0 mi NW 4.6 mph - N/A   Clear
5:15 AM 13.1 °F - 9.3 °F 85% 30.37 in 10.0 mi Calm Calm - N/A   Clear
5:35 AM 15.1 °F 9.4 °F 13.1 °F 92% 30.38 in 10.0 mi NNW 3.5 mph - N/A   Clear
5:55 AM 14.5 °F 8.8 °F 12.6 °F 92% 30.38 in 10.0 mi North 3.5 mph - N/A   Clear
6:15 AM 14.0 °F 6.5 °F 12.2 °F 93% 30.39 in 10.0 mi North 4.6 mph - N/A   Clear
6:35 AM 13.6 °F 6.0 °F 11.8 °F 93% 30.39 in 10.0 mi NNW 4.6 mph - N/A   Clear
6:55 AM 13.3 °F 7.3 °F 11.1 °F 91% 30.39 in 10.0 mi NNW 3.5 mph - N/A   Clear
7:35 AM 12.6 °F 6.5 °F 10.0 °F 90% 30.38 in 10.0 mi NNW 3.5 mph - N/A   Clear
7:55 AM 13.6 °F 6.0 °F 11.1 °F 90% 30.39 in 10.0 mi North 4.6 mph - N/A   Clear
8:15 AM 13.8 °F 8.0 °F 11.3 °F 90% 30.39 in 7.0 mi North 3.5 mph - N/A   Clear
8:35 AM 14.9 °F 7.5 °F 12.6 °F 90% 30.39 in 7.0 mi NNW 4.6 mph - N/A   Clear
8:55 AM 16.7 °F 9.6 °F 14.7 °F 92% 30.39 in 10.0 mi North 4.6 mph - N/A   Clear
9:15 AM 18.3 °F - 15.8 °F 90% 30.40 in 10.0 mi Calm Calm - N/A   Clear
9:35 AM 21.4 °F - 19.0 °F 91% 30.41 in 10.0 mi Calm Calm - N/A   Clear
9:55 AM 23.2 °F - 17.6 °F 79% 30.43 in 10.0 mi Calm Calm - N/A   Clear
10:15 AM 24.3 °F - 17.1 °F 74% 30.44 in 10.0 mi Calm Calm - N/A   Clear
10:35 AM 24.8 °F 20.5 °F 19.4 °F 80% 30.45 in 10.0 mi SW 3.5 mph - N/A   Clear
10:55 AM 26.1 °F - 19.8 °F 77% 30.44 in 10.0 mi Calm Calm - N/A   Clear
11:15 AM 27.3 °F - 19.6 °F 73% 30.44 in 10.0 mi Calm Calm - N/A   Clear
11:35 AM 27.9 °F 24.0 °F 20.5 °F 74% 30.42 in 10.0 mi SE 3.5 mph - N/A   Scattered Clouds
11:55 AM 27.5 °F 23.6 °F 20.3 °F 74% 30.44 in 10.0 mi SSE 3.5 mph - N/A   Mostly Cloudy
12:15 PM 28.4 °F 24.6 °F 20.7 °F 73% 30.44 in 10.0 mi South 3.5 mph - N/A   Overcast
12:35 PM 28.9 °F 23.9 °F 20.7 °F 71% 30.43 in 10.0 mi SE 4.6 mph - N/A   Overcast
12:55 PM 28.9 °F 22.8 °F 20.5 °F 71% 30.42 in 10.0 mi SE 5.8 mph - N/A   Overcast
1:15 PM 29.5 °F 23.4 °F 21.9 °F 73% 30.41 in 10.0 mi SSE 5.8 mph - N/A   Overcast
1:35 PM 30.0 °F 23.2 °F 21.7 °F 71% 30.41 in 10.0 mi SSE 6.9 mph - N/A   Overcast
1:55 PM 30.6 °F 23.8 °F 22.5 °F 72% 30.40 in 10.0 mi SSE 6.9 mph - N/A   Overcast
2:15 PM 30.9 °F 23.5 °F 22.3 °F 70% 30.39 in 10.0 mi SSE 8.1 mph - N/A   Overcast
2:35 PM 31.5 °F 25.8 °F 22.6 °F 70% 30.38 in 10.0 mi SSE 5.8 mph - N/A   Overcast
2:55 PM 31.8 °F 24.6 °F 22.8 °F 69% 30.37 in 10.0 mi SSE 8.1 mph - N/A   Overcast
3:15 PM 32.0 °F 23.6 °F 21.9 °F 66% 30.36 in 10.0 mi SE 10.4 mph - N/A   Overcast
3:35 PM 32.7 °F 24.5 °F 23.0 °F 67% 30.35 in 10.0 mi SSE 10.4 mph - N/A   Overcast
3:55 PM 33.3 °F 25.7 °F 23.5 °F 68% 30.35 in 10.0 mi SE 9.2 mph - N/A   Overcast
4:15 PM 34.5 °F 27.3 °F 24.4 °F 67% 30.35 in 10.0 mi SE 9.2 mph - N/A   Scattered Clouds
4:35 PM 34.3 °F 27.0 °F 24.4 °F 67% 30.34 in 10.0 mi SE 9.2 mph - N/A   Clear
4:55 PM 34.7 °F 27.5 °F 24.8 °F 67% 30.33 in 10.0 mi SE 9.2 mph - N/A   Clear
5:15 PM 35.2 °F 28.8 °F 25.7 °F 68% 30.33 in 10.0 mi SSE 8.1 mph - N/A   Clear
5:35 PM 35.8 °F 28.8 °F 26.4 °F 69% 30.31 in 10.0 mi SSE 9.2 mph - N/A   Clear
5:55 PM 36.0 °F 29.0 °F 26.6 °F 69% 30.31 in 10.0 mi SSE 9.2 mph - N/A   Clear
6:15 PM 35.6 °F 28.6 °F 26.4 °F 69% 30.30 in 10.0 mi SSE 9.2 mph - N/A   Clear
6:35 PM 34.7 °F 28.1 °F 26.2 °F 71% 30.28 in 10.0 mi SE 8.1 mph - N/A   Clear
6:55 PM 34.0 °F 27.2 °F 26.1 °F 73% 30.28 in 10.0 mi SE 8.1 mph - N/A   Clear
7:15 PM 32.2 °F 25.0 °F 25.7 °F 77% 30.27 in 10.0 mi ESE 8.1 mph - N/A   Clear
7:35 PM 32.0 °F 24.8 °F 24.8 °F 75% 30.27 in 10.0 mi SE 8.1 mph - N/A   Clear
7:55 PM 30.7 °F 24.1 °F 24.4 °F 77% 30.27 in 10.0 mi ESE 6.9 mph - N/A   Clear
8:15 PM 30.2 °F 22.6 °F 23.7 °F 77% 30.26 in 10.0 mi ESE 8.1 mph - N/A   Clear
8:35 PM 30.2 °F 22.6 °F 23.7 °F 77% 30.25 in 10.0 mi SE 8.1 mph - N/A   Clear
8:55 PM 30.6 °F 23.1 °F 23.4 °F 75% 30.24 in 10.0 mi ESE 8.1 mph - N/A   Clear
9:15 PM 30.7 °F 23.3 °F 23.0 °F 73% 30.24 in 10.0 mi SE 8.1 mph - N/A   Clear
9:35 PM 30.6 °F 23.8 °F 22.6 °F 72% 30.24 in 10.0 mi SE 6.9 mph - N/A   Clear
9:55 PM 29.7 °F 22.8 °F 22.6 °F 75% 30.24 in 10.0 mi SE 6.9 mph - N/A   Clear
10:15 PM 28.2 °F 20.2 °F 21.9 °F 77% 30.24 in 10.0 mi SE 8.1 mph - N/A   Clear
10:35 PM 28.4 °F 19.1 °F 21.9 °F 77% 30.23 in 10.0 mi SE 10.4 mph - N/A   Clear
10:55 PM 28.4 °F 20.4 °F 21.9 °F 77% 30.23 in 10.0 mi SSE 8.1 mph - N/A   Clear
11:15 PM 28.8 °F 21.7 °F 21.9 °F 76% 30.23 in 10.0 mi SSE 6.9 mph - N/A   Clear
11:35 PM 30.2 °F 21.9 °F 22.6 °F 73% 30.23 in 10.0 mi SSE 9.2 mph - N/A   Clear
11:55 PM 30.7 °F 22.6 °F 23.0 °F 73% 30.22 in 10.0 mi SSE 9.2 mph - N/A   Clear